Weather History for KPBI - January, 2014

Change the Weather History Date:

Saturday, January 18, 2014

  Actual Average Record
Temperature  
Mean Temperature 54 °F 66 °F  
Max Temperature 66 °F 75 °F 87 °F (1960)
Min Temperature 42 °F 57 °F 32 °F (1965)
Degree Days  
Heating Degree Days 11 3  
Month to date heating degree days 56 54  
Since 1 July heating degree days 60 125  
Cooling Degree Days 0 3  
Month to date cooling degree days 96 61  
Year to date cooling degree days 96 61  
Moisture  
Dew Point 38 °F    
Average Humidity 65    
Maximum Humidity 100    
Minimum Humidity 30    
Precipitation  
Precipitation 0.00 in 0.09 in 1.65 in (1941)
Month to date precipitation 6.72 1.90  
Year to date precipitation 6.72 1.90  
Snow  
Snow 0.00 in - - ()
Month to date snowfall 0.0  
Since 1 July snowfall 0.0  
Snow Depth 0.00 in    
Sea Level Pressure  
Sea Level Pressure 30.18 in    
Wind  
Wind Speed 7 mph (NW)    
Max Wind Speed 16 mph    
Max Gust Speed 23 mph    
Visibility 10 miles    
Events      
T = Trace of Precipitation, MM = Missing Value Source: NWS Daily Summary

Daily Weather History Graph

Daily Weather History Graph

Search for Another Location

Airport or City:

Trip Planner

Search our weather history database for the weather conditions in past years. The results will help you decide how hot, cold, wet, or windy it might be!

Date:

Astronomy

Jan. 18, 2014 Rise Set
Actual Time 7:10 AM EST 5:51 PM EST
Civil Twilight 6:45 AM EST 6:16 PM EST
Nautical Twilight 6:16 AM EST 6:45 PM EST
Astronomical Twilight 5:49 AM EST 7:12 PM EST
Moon 8:13 PM EST (1/18) 8:25 AM EST (1/18)
Length of Visible Light 11h 31m
Length of Day
10h 41m
Waning Gibbous, 94% of the Moon is Illuminated
Jan 18
Waning Gibbous
Jan 24
Last Quarter
Jan 30
New
Feb 6
First Quarter
Feb 14
Full

Hourly Weather History & Observations

Time (EST) Temp. Windchill Dew Point Humidity Pressure Visibility Wind Dir Wind Speed Gust Speed Precip Events Conditions
12:53 AM 53.1 °F - 36.0 °F 52% 30.14 in 10.0 mi West 4.6 mph - N/A   Mostly Cloudy
1:53 AM 51.8 °F - 35.6 °F 54% 30.15 in 10.0 mi West 8.1 mph - N/A   Scattered Clouds
2:53 AM 49.1 °F - 37.0 °F 63% 30.14 in 10.0 mi West 5.8 mph - N/A   Scattered Clouds
3:53 AM 48.9 °F - 37.0 °F 64% 30.14 in 10.0 mi SW 3.5 mph - N/A   Scattered Clouds
4:53 AM 48.7 °F - 39.2 °F 70% 30.14 in 10.0 mi Calm Calm - N/A   Partly Cloudy
5:53 AM 48.7 °F - 39.2 °F 70% 30.15 in 10.0 mi Calm Calm - N/A   Partly Cloudy
6:53 AM 50.5 °F - 43.0 °F 75% 30.16 in 10.0 mi WSW 4.6 mph - N/A   Partly Cloudy
7:53 AM 51.4 °F - 43.2 °F 73% 30.18 in 10.0 mi West 3.5 mph - N/A   Mostly Cloudy
8:53 AM 57.0 °F - 46.9 °F 69% 30.22 in 10.0 mi NW 9.2 mph - N/A   Scattered Clouds
9:53 AM 60.1 °F - 46.0 °F 60% 30.23 in 10.0 mi NW 13.8 mph - N/A   Scattered Clouds
10:53 AM 62.1 °F - 44.1 °F 52% 30.24 in 10.0 mi NNW 16.1 mph - N/A   Scattered Clouds
11:53 AM 64.0 °F - 43.0 °F 46% 30.22 in 10.0 mi NNW 10.4 mph 19.6 mph N/A   Scattered Clouds
12:53 PM 64.9 °F - 39.9 °F 40% 30.19 in 10.0 mi North 9.2 mph - N/A   Scattered Clouds
1:53 PM 64.9 °F - 37.9 °F 37% 30.16 in 10.0 mi NW 12.7 mph - N/A   Scattered Clouds
2:53 PM 64.9 °F - 37.0 °F 36% 30.15 in 10.0 mi NW 11.5 mph - N/A   Partly Cloudy
3:53 PM 64.0 °F - 33.1 °F 31% 30.15 in 10.0 mi WNW 11.5 mph - N/A   Partly Cloudy
4:53 PM 63.0 °F - 30.0 °F 29% 30.16 in 10.0 mi NNW 10.4 mph - N/A   Partly Cloudy
5:53 PM 55.9 °F - 30.0 °F 37% 30.17 in 10.0 mi West 6.9 mph - N/A   Partly Cloudy
6:53 PM 52.0 °F - 34.0 °F 50% 30.18 in 10.0 mi WNW 8.1 mph - N/A   Partly Cloudy
7:53 PM 52.0 °F - 34.0 °F 50% 30.20 in 10.0 mi NW 4.6 mph - N/A   Clear
8:53 PM 50.0 °F - 34.0 °F 54% 30.21 in 10.0 mi NNW 3.5 mph - N/A   Clear
9:53 PM 51.1 °F - 30.9 °F 46% 30.21 in 10.0 mi Calm Calm - N/A   Clear
10:53 PM 46.9 °F - 36.0 °F 66% 30.20 in 10.0 mi Calm Calm - N/A   Scattered Clouds
11:53 PM 44.1 °F 42.5 °F 34.0 °F 68% 30.19 in 10.0 mi NNW 3.5 mph - N/A   Partly Cloudy